Location: Lafig�re
(44.4503°N, 4.0357°E)
Time: 15:36:37
(UTC+00:00)

Transit 2A Rocket - Pass Details

Date: 24 January 2021
Orbit: 594 x 908 km, 66.7° (Epoch: 06 March)

Event Time Altitude Azimuth Distance (km) Brightness Sun altitude
Rises 12:36:55 0° 229° (SW) 3,335 9.1 25.8°
Reaches altitude 10° 12:39:33 10° 236° (SW) 2,357 8.3 25.7°
Maximum altitude 12:44:40 44° 308° (NW) 1,032 5.8 25.5°
Drops below altitude 10° 12:49:24 10° 21° (NNE) 2,167 6.9 25.3°
Sets 12:51:45 0° 28° (NNE) 3,039 7.5 25.2°
